• In Germany
  • List of Countries
  • For 7 days
  • Water Temperature
  • Satellite Maps
  • Weather Map
  • Weather Widgets
  • user-avatar
    Login

    Hourly Weather Mykhalkove

    Today, 28 May, Monday

    Time Temperature Precipitation Wind Pressure Humidity
    00:00 +14°C° 0 mm 2 mps 746 mmHg 72%
    01:00 +14°C° 0 mm 2 mps 746 mmHg 73%
    02:00 +13°C° 0 mm 2 mps 746 mmHg 75%
    03:00 +13°C° 0 mm 2 mps 746 mmHg 76%
    04:00 +13°C° 0 mm 2 mps 747 mmHg 78%
    05:00 +12°C° 0 mm 2 mps 747 mmHg 79%
    06:00 +13°C° 0 mm 3 mps 747 mmHg 74%
    07:00 +16°C° 0 mm 3 mps 747 mmHg 69%
    08:00 +18°C° 0 mm 3 mps 747 mmHg 64%
    09:00 +19°C° 0 mm 3 mps 747 mmHg 58%
    10:00 +21°C° 0 mm 3 mps 747 mmHg 53%
    11:00 +22°C° 0 mm 4 mps 747 mmHg 47%
    12:00 +23°C° 0 mm 4 mps 747 mmHg 45%
    13:00 +23°C° 0 mm 4 mps 747 mmHg 44%
    14:00 +25°C° 0 mm 4 mps 747 mmHg 43%
    15:00 +25°C° 0 mm 4 mps 747 mmHg 46%
    16:00 +23°C° 0 mm 4 mps 747 mmHg 48%
    17:00 +23°C° 0 mm 4 mps 747 mmHg 50%
    18:00 +21°C° 0 mm 3 mps 747 mmHg 58%
    19:00 +20°C° 0 mm 3 mps 747 mmHg 65%
    20:00 +18°C° 0 mm 3 mps 747 mmHg 72%
    21:00 +17°C° 0 mm 3 mps 747 mmHg 75%
    22:00 +16°C° 0 mm 3 mps 747 mmHg 77%
    23:00 +14°C° 0 mm 3 mps 748 mmHg 80%

    Tomorrow, 29 May, Tuesday

    Time Temperature Precipitation Wind Pressure Humidity
    00:00 +14°C° 0 mm 3 mps 748 mmHg 82%
    01:00 +13°C° 0 mm 3 mps 748 mmHg 83%
    02:00 +13°C° 0 mm 3 mps 748 mmHg 85%
    03:00 +13°C° 0 mm 3 mps 747 mmHg 86%
    04:00 +13°C° 0 mm 3 mps 747 mmHg 87%
    05:00 +12°C° 0 mm 3 mps 747 mmHg 88%
    06:00 +14°C° 0 mm 3 mps 747 mmHg 82%
    07:00 +18°C° 0 mm 3 mps 747 mmHg 76%
    08:00 +20°C° 0 mm 3 mps 748 mmHg 70%
    09:00 +21°C° 0 mm 4 mps 747 mmHg 64%
    10:00 +22°C° 0 mm 4 mps 747 mmHg 58%
    11:00 +25°C° 0 mm 4 mps 747 mmHg 52%
    12:00 +25°C° 0 mm 4 mps 747 mmHg 51%
    13:00 +26°C° 0 mm 4 mps 747 mmHg 50%
    14:00 +27°C° 0 mm 4 mps 746 mmHg 50%
    15:00 +26°C° 0.2 mm 4 mps 746 mmHg 53%
    16:00 +26°C° 0.2 mm 4 mps 745 mmHg 57%
    17:00 +25°C° 0.2 mm 4 mps 745 mmHg 61%
    18:00 +24°C° 0.2 mm 3 mps 745 mmHg 68%
    19:00 +21°C° 0.2 mm 3 mps 745 mmHg 75%
    20:00 +19°C° 0.2 mm 3 mps 745 mmHg 82%
    21:00 +18°C° 0 mm 3 mps 745 mmHg 83%
    22:00 +18°C° 0 mm 3 mps 745 mmHg 84%
    23:00 +17°C° 0 mm 3 mps 745 mmHg 86%

    Day after tomorrow, 30 May, Wednesday

    Time Temperature Precipitation Wind Pressure Humidity
    00:00 +16°C° 0 mm 3 mps 744 mmHg 86%
    01:00 +14°C° 0 mm 3 mps 744 mmHg 85%
    02:00 +14°C° 0 mm 3 mps 744 mmHg 85%
    03:00 +13°C° 0 mm 3 mps 744 mmHg 85%
    04:00 +14°C° 0 mm 2 mps 744 mmHg 85%
    05:00 +13°C° 0 mm 2 mps 744 mmHg 85%
    06:00 +14°C° 0 mm 3 mps 744 mmHg 79%
    07:00 +17°C° 0 mm 3 mps 744 mmHg 73%
    08:00 +19°C° 0 mm 3 mps 744 mmHg 67%
    09:00 +20°C° 0 mm 3 mps 743 mmHg 61%
    10:00 +22°C° 0 mm 3 mps 743 mmHg 55%
    11:00 +24°C° 0 mm 3 mps 743 mmHg 49%
    12:00 +24°C° 0 mm 3 mps 743 mmHg 46%
    13:00 +25°C° 0 mm 3 mps 743 mmHg 44%
    14:00 +26°C° 0 mm 3 mps 742 mmHg 42%
    15:00 +25°C° 0 mm 2 mps 742 mmHg 43%
    16:00 +25°C° 0 mm 2 mps 741 mmHg 44%
    17:00 +25°C° 0 mm 2 mps 741 mmHg 45%
    18:00 +23°C° 0 mm 2 mps 741 mmHg 51%
    19:00 +20°C° 0 mm 2 mps 740 mmHg 56%
    20:00 +19°C° 0 mm 2 mps 740 mmHg 62%
    21:00 +18°C° 0 mm 2 mps 740 mmHg 63%
    22:00 +18°C° 0 mm 1 mps 740 mmHg 65%
    23:00 +16°C° 0 mm 1 mps 740 mmHg 66%

    31 May, Thursday

    Time Temperature Precipitation Wind Pressure Humidity
    00:00 +16°C° 0 mm 1 mps 740 mmHg 67%
    01:00 +15°C° 0 mm 1 mps 739 mmHg 68%
    02:00 +15°C° 0 mm 1 mps 739 mmHg 69%
    03:00 +15°C° 0 mm 1 mps 739 mmHg 70%
    04:00 +14°C° 0 mm 1 mps 738 mmHg 71%
    05:00 +14°C° 0 mm 1 mps 738 mmHg 72%
    06:00 +16°C° 0 mm 1 mps 738 mmHg 66%
    07:00 +19°C° 0 mm 1 mps 738 mmHg 61%
    08:00 +21°C° 0 mm 1 mps 738 mmHg 56%
    09:00 +23°C° 0 mm 1 mps 738 mmHg 52%
    10:00 +24°C° 0 mm 1 mps 738 mmHg 47%
    11:00 +25°C° 0 mm 1 mps 738 mmHg 43%
    12:00 +26°C° 0 mm 1 mps 737 mmHg 41%
    13:00 +27°C° 0 mm 1 mps 737 mmHg 40%
    14:00 +27°C° 0 mm 1 mps 737 mmHg 38%
    15:00 +27°C° 0 mm 1 mps 736 mmHg 37%
    16:00 +25°C° 0 mm 0 mps 736 mmHg 37%
    17:00 +25°C° 0 mm 0 mps 735 mmHg 37%
    18:00 +23°C° 0 mm 0 mps 735 mmHg 42%
    19:00 +21°C° 0 mm 0 mps 735 mmHg 47%
    20:00 +20°C° 0 mm 0 mps 735 mmHg 51%
    21:00 +19°C° 0 mm 0 mps 735 mmHg 51%
    22:00 +21°C° 0 mm 1 mps 735 mmHg 52%
    23:00 +21°C° 0 mm 1 mps 735 mmHg 52%

    1 June, Friday

    Time Temperature Precipitation Wind Pressure Humidity
    00:00 +20°C° 0 mm 1 mps 734 mmHg 53%
    01:00 +20°C° 0 mm 1 mps 734 mmHg 55%
    02:00 +19°C° 0 mm 1 mps 734 mmHg 56%
    03:00 +19°C° 0.2 mm 1 mps 734 mmHg 60%
    04:00 +19°C° 0.2 mm 1 mps 733 mmHg 64%
    05:00 +18°C° 0.2 mm 1 mps 733 mmHg 68%
    06:00 +17°C° 0.9 mm 2 mps 733 mmHg 71%
    07:00 +18°C° 0.9 mm 3 mps 733 mmHg 73%
    08:00 +18°C° 0.9 mm 3 mps 733 mmHg 76%
    09:00 +18°C° 1.4 mm 3 mps 733 mmHg 79%
    10:00 +18°C° 1.4 mm 3 mps 733 mmHg 81%
    11:00 +18°C° 1.4 mm 4 mps 733 mmHg 83%
    12:00 +17°C° 1.7 mm 4 mps 733 mmHg 85%
    13:00 +17°C° 1.7 mm 4 mps 733 mmHg 88%
    14:00 +15°C° 1.7 mm 5 mps 733 mmHg 90%
    15:00 +14°C° 0.4 mm 6 mps 734 mmHg 89%
    16:00 +14°C° 0.4 mm 7 mps 734 mmHg 89%
    17:00 +12°C° 0.4 mm 8 mps 734 mmHg 88%
    18:00 +11°C° 0.2 mm 9 mps 734 mmHg 88%
    19:00 +10°C° 0.2 mm 9 mps 735 mmHg 87%
    20:00 +10°C° 0.2 mm 9 mps 735 mmHg 86%
    21:00 +8°C° 0.6 mm 9 mps 735 mmHg 86%
    22:00 +8°C° 0.6 mm 9 mps 735 mmHg 86%
    23:00 +8°C° 0.6 mm 9 mps 735 mmHg 87%

    2 June, Saturday

    Time Temperature Precipitation Wind Pressure Humidity
    00:00 +7°C° 0.9 mm 9 mps 734 mmHg 87%
    01:00 +7°C° 0.9 mm 9 mps 734 mmHg 87%
    02:00 +7°C° 0.9 mm 9 mps 734 mmHg 88%
    03:00 +7°C° 0.7 mm 9 mps 734 mmHg 88%
    04:00 +6°C° 0.7 mm 9 mps 733 mmHg 88%
    05:00 +6°C° 0.7 mm 9 mps 733 mmHg 88%
    06:00 +6°C° 0.6 mm 10 mps 733 mmHg 88%
    07:00 +6°C° 0.6 mm 10 mps 733 mmHg 88%
    08:00 +6°C° 0.6 mm 10 mps 733 mmHg 88%
    09:00 +6°C° 0.3 mm 10 mps 733 mmHg 87%
    10:00 +6°C° 0.3 mm 10 mps 733 mmHg 87%
    11:00 +6°C° 0.3 mm 10 mps 734 mmHg 87%
    12:00 +7°C° 0.4 mm 10 mps 734 mmHg 87%
    13:00 +7°C° 0.4 mm 10 mps 734 mmHg 87%
    14:00 +7°C° 0.4 mm 10 mps 734 mmHg 87%
    15:00 +7°C° 0.2 mm 10 mps 734 mmHg 87%
    16:00 +7°C° 0.2 mm 9 mps 734 mmHg 86%
    17:00 +7°C° 0.2 mm 9 mps 735 mmHg 86%
    18:00 +7°C° 0.1 mm 8 mps 735 mmHg 87%
    19:00 +7°C° 0.1 mm 8 mps 735 mmHg 88%
    20:00 +9°C° 0.1 mm 7 mps 735 mmHg 90%
    21:00 +9°C° 0.1 mm 7 mps 735 mmHg 90%
    22:00 +9°C° 0.1 mm 6 mps 735 mmHg 91%
    23:00 +9°C° 0.1 mm 6 mps 735 mmHg 92%
    Show more